Home   Weather   Philipsburg   Past weeks

Flag for Sint Maarten Past Weather in Philipsburg, Sint Maarten — Yesterday and Last 2 Weeks

Now
73 °F

Passing clouds.


Feels Like: 74 °F
Forecast: 66 / 79 °F
Wind: No wind

Location: Juliana Airport - Saint Maarten

Current Time: Jan 22, 2017 at 2:23:34 am

Latest Report: Jan 22, 2017 at 1:00 am


Visibility: N/A

Pressure: 29.95 "Hg

Humidity: 78%

Dew Point: 66 °F

Location of PhilipsburgLocation

Past Weather in Philipsburg — Graph

°F

Philipsburg Temperature Yesterday

Maximum temperature yesterday: 81 °F (at 9:00 am)
Minimum temperature yesterday: 73 °F (at 12:00 am)
Average temperature yesterday: 77 °F

High & Low Weather Summary for the Past Weeks

 TemperatureHumidityPressure
High82 °F (Jan 7, 1:00 pm)100% (Jan 11, 5:00 am)30.12 "Hg (Jan 11, 5:00 am)
Low72 °F (Jan 11, 4:14 am)51% (Jan 9, 3:00 pm)29.92 "Hg (Jan 10, 2:00 pm)
Average78 °F73%30.01 "Hg
* Reported Jan 7 1:00 am — Jan 22 1:00 am, Philipsburg, Weather by CustomWeather, © 2017

Note: Actual official high and low records may vary slightly from our data, if they occured in-between our weather recording intervals... More about our weather records

Advertising

Philipsburg Weather History for the Previous 24 Hours

Scroll right to see more
 ConditionsComfort  
Time TempWeatherWind HumidityBarometerVisibility
1:00 am
Sun, Jan 22
73 °FPassing clouds.No wind78%29.95 "HgN/A
12:00 am73 °FPassing clouds.1 mph78%29.98 "HgN/A
11:00 pm
Sat, Jan 21
75 °FPassing clouds.No wind74%29.98 "HgN/A
10:00 pm75 °FPassing clouds.2 mph69%30.01 "HgN/A
9:00 pm75 °FPassing clouds.2 mph69%30.01 "HgN/A
8:00 pm77 °FPassing clouds.3 mph69%29.98 "HgN/A
7:00 pm77 °FPassing clouds.3 mph65%29.98 "HgN/A
6:00 pm77 °FPassing clouds.3 mph69%29.95 "HgN/A
5:00 pm79 °FScattered clouds.N/A65%29.92 "HgN/A
4:00 pm81 °FPassing clouds.6 mph62%29.92 "HgN/A
3:00 pm81 °FPassing clouds.7 mph62%29.95 "HgN/A
2:00 pm81 °FPassing clouds.5 mph62%29.95 "HgN/A
1:00 pm81 °FScattered clouds.6 mph62%29.98 "HgN/A
12:00 pm81 °FScattered clouds.5 mph62%30.01 "HgN/A
11:00 am81 °FScattered clouds.1 mph66%30.04 "HgN/A
10:00 am81 °FScattered clouds.2 mph66%30.04 "HgN/A
9:00 am81 °FScattered clouds.1 mph66%30.01 "HgN/A
8:00 am77 °FPassing clouds.1 mph74%29.98 "HgN/A
7:00 am73 °FPassing clouds.1 mph78%29.98 "HgN/A
6:00 am75 °FPassing clouds.1 mph74%29.98 "HgN/A
5:00 am75 °FPassing clouds.No wind69%29.95 "HgN/A
4:00 am73 °FPassing clouds.1 mph78%29.95 "HgN/A
3:00 am73 °FPassing clouds.6 mph78%29.95 "HgN/A
2:00 am73 °FPassing clouds.6 mph83%29.98 "HgN/A
Weather by CustomWeather, © 2017

See weather overviewHow to use our weather pages